This demonstration page uses our WeatherBlox Daily Observations layout. Learn more.

Left ArrowRight Arrow

Hourly Observations for October 21, 2018

Temp ( °F °C ) Dew Point ( °F °C ) Humidity (%) Winds ( mph kmh ) Pressure ( in mb ) Visibility ( mi km ) Precip ( " mm )
12:54 am 00:54 Clear 31 -0.6 25 -3.9 79 79 Calm 30.38 1029 10 16.0934 0 0
1:54 am 01:54 Clear 31 -0.6 25 -3.9 79 79 Calm 30.37 1028 10 16.0934 0 0
2:54 am 02:54 Clear 34 1.1 27 -2.8 76 76 Calm 30.37 1028 10 16.0934 0 0
3:54 am 03:54 Clear 35 1.7 26 -3.3 70 70 SSW 5 7 30.36 1028 10 16.0934 0 0
4:54 am 04:54 Clear 33 0.6 26 -3.3 75 75 SE 5 7 30.34 1028 10 16.0934 0 0
5:54 am 05:54 Clear 32 0 26 -3.3 79 79 SSE 7 11 30.34 1027 10 16.0934 0 0
6:54 am 06:54 Clear 34 1.1 27 -2.8 76 76 SSE 6 9 30.34 1027 10 16.0934 0 0
7:54 am 07:54 Sunny 33 0.6 27 -2.8 78 78 S 8 13 30.32 1027 10 16.0934 0 0
8:54 am 08:54 Sunny 40 4.4 31 -0.6 70 70 S 14 22 30.29 1026 10 16.0934 0 0
9:54 am 09:54 Sunny 46 7.8 31 -0.6 56 56 S 18 30 30.25 1025 10 16.0934 0 0
10:54 am 10:54 Sunny 52 11.1 31 -0.6 45 45 S 20 31 30.22 1023 10 16.0934 0 0
11:54 am 11:54 Sunny 57 13.9 33 0.6 41 41 SSW 23 37 30.17 1022 10 16.0934 0 0
12:54 pm 12:54 Sunny 63 17.2 36 2.2 37 37 SSW 20 31 30.12 1020 10 16.0934 0 0
1:54 pm 13:54 Sunny 67 19.4 38 3.3 35 35 SSW 22 35 30.08 1019 10 16.0934 0 0
2:54 pm 14:54 Sunny 71 21.7 39 3.9 31 31 SSW 21 33 30.04 1017 10 16.0934 0 0
3:54 pm 15:54 Sunny 72 22.2 39 3.9 30 30 SSW 20 31 30.02 1017 10 16.0934 0 0
4:54 pm 16:54 Sunny 73 22.8 40 4.4 30 30 SSW 16 26 30 1016 10 16.0934 0 0
5:54 pm 17:54 Sunny 71 21.7 42 5.6 35 35 SSW 13 20 30.01 1016 10 16.0934 0 0
6:54 pm 18:54 Clear 60 15.6 43 6.1 53 53 S 9 15 30.02 1017 10 16.0934 0 0
7:54 pm 19:54 Clear 53 11.7 42 5.6 66 66 S 10 17 30.03 1017 10 16.0934 0 0
8:54 pm 20:54 Clear 53 11.7 42 5.6 66 66 S 3 6 30.03 1017 10 16.0934 0 0
9:54 pm 21:54 Clear 50 10 41 5 71 71 S 3 6 30.03 1017 10 16.0934 0 0
10:54 pm 22:54 Clear 49 9.4 41 5 74 74 SSW 3 6 30.03 1017 10 16.0934 0 0
11:54 pm 23:54 Clear 55 12.8 43 6.1 64 64 SSW 8 13 30.02 1017 10 16.0934 0 0

Powered by AerisWeather